Regional Weather Roundup
Issued by NWS

Home | Current Version | Previous Version | Text Only | Print | Product List | Glossary Off
Versions: 1 2 3 4 5 6 7 8 9 10 11 12 13 14 15 16 17 18 19 20 21 22 23 24 25 26 27

000
ASUS45 KBOU 300707
RWRCO

WEATHER ROUNDUP FOR COLORADO
NATIONAL WEATHER SERVICE DENVER/BOULDER CO
100 AM MDT THU MAR 30 2017

NOTE: "FAIR" INDICATES FEW OR NO CLOUDS BELOW 12000 FEET WITH NO
SIGNIFICANT WEATHER AND/OR OBSTRUCTIONS TO VISIBILITY.

COZ001>005-013-030-031-300800-
...NORTHWEST COLORADO...

CITY           SKY/WX    TMP DP  RH WIND       PRES   REMARKS
CRAIG          FAIR      31  25  78 SE3       30.04F
HAYDEN         MOCLDY    34  23  64 E6        30.04F WCI  29
MEEKER         FAIR      31  27  85 VRB5      30.05F WCI  26
MOUNT WERNER   NOT AVBL
STEAMBOAT SPGS CLOUDY    32  27  79 CALM      30.05F
WALDEN         NOT AVBL
$$

COZ006>008-011-300800-
...WEST CENTRAL VALLEYS...

CITY           SKY/WX    TMP DP  RH WIND       PRES   REMARKS
GRAND JUNCTION FAIR      43  31  62 E12       30.02S
MONTROSE       FAIR      39  30  70 SE8       30.08F
EAGLE          FAIR      33  26  75 E7        30.09F WCI  27
RIFLE          FAIR      35  25  66 CALM      30.04F
DELTA          FAIR      42  29  59 E5        30.06S
NUCLA          FAIR      37  27  65 E9        30.11S
$$

COZ017>023-064>068-300800-
...SOUTHWEST COLORADO...

CITY           SKY/WX    TMP DP  RH WIND       PRES   REMARKS
DURANGO        FAIR      32  21  64 CALM      30.05R
CORTEZ         FAIR      32  26  78 NE7       30.07F WCI  26
PAGOSA SPRINGS FAIR      34  22  61 W3        30.09R
TELLURIDE      NOT AVBL
WOLF CREEK PAS FAIR      27   3  36 NW5       30.23S WCI  21
$$

COZ009-010-012-014-032>034-037-058>063-300800-
...CENTRAL COLORADO...

CITY           SKY/WX    TMP DP  RH WIND       PRES   REMARKS
ASPEN          FAIR      31  23  72 SW8       30.09F WCI  23
BUENA VISTA    FAIR      35  21  57 NW9       30.05S WCI  27
COPPER MTN     FAIR      25  19  80 MISG      30.14F
BERTHOUD PASS  LGT SNOW  18   5  57 NW24G37   30.09S WCI   0
COTTONWOOD PAS FAIR      36  14  41 SW16G30   30.07S
GUNNISON       FAIR      31  24  75 CALM      30.10S
KREMMLING      FAIR      34  28  80 CALM      30.08S
LEADVILLE      FAIR      24  16  71 CALM      30.10S
MONARCH PASS   FAIR      21  18  86 SW18      30.25S WCI   6
SALIDA         FAIR      37  19  49 NW5       30.11S
SUNLIGHT       FAIR      27  19  74 SW8       30.18F WCI  18
WILKERSON PASS MOCLDY    27  14  59 NW12G17   30.11F WCI  16
$$

COZ069>075-300800-
...SAN LUIS VALLEY/SANGRE DE CRISTO MOUNTAINS...

CITY           SKY/WX    TMP DP  RH WIND       PRES   REMARKS
ALAMOSA        FAIR      30  22  72 SE3       30.07R
LA VETA PASS   NOT AVBL
SAGUACHE       FAIR      32  21  64 NW10      30.08S WCI  24
$$

COZ035-036-038>040-300800-
...NORTHERN COLORADO FRONT RANGE...

CITY           SKY/WX    TMP DP  RH WIND       PRES   REMARKS
DENVER INTL AP FAIR      39  32  76 S8        29.92F
DMNS CITY PARK   N/A     41  31  66 MISG      29.92F
AURORA         PTCLDY    36  33  89 S8        29.93F
FRONT RANGE AP FAIR      36  34  93 S6        29.94F
ERIE MUNI ARPT FAIR      36  33  88 CALM        N/A
BOULDER MUN AP FAIR      39  32  75 N3        29.92F
CENTENNIAL     FAIR      34  30  85 CALM      29.93F
BROOMFIELD     FAIR      41  32  70 CALM      29.93F
FORT COLLINS   FAIR      35  32  88 N5        29.94F WCI  31
LONGMONT       FAIR      38  32  77 CALM      29.95F
$$

COZ041-046-047-076>085-087-088-300800-
...PIKES PEAK/PALMER DIVIDE AND SOUTHERN FOOTHILLS...

CITY           SKY/WX    TMP DP  RH WIND       PRES   REMARKS
COLO. SPRINGS  FAIR      35  30  82 E6        29.97F WCI  30
A. F. ACADEMY  NOT AVBL
SCHRIEVER AFB  FAIR      33  31  90 SW6       29.97F WCI  28
ELLICOTT       FAIR     N/A N/A N/A N3        29.95F
FALCON         FAIR      33  31  93 W9        29.98F WCI  25
FORT CARSON    FAIR      42  31  66 N3        29.95F
LIMON          FAIR      29  28  96 N3        29.93F
MONUMENT HILL  FAIR      34  28  80 SW7       29.98F WCI  28
TRINIDAD       FAIR      36  31  82 SW15      29.97F
$$

COZ042>045-048>051-090-091-300800-
...NORTHEAST COLORADO...

CITY           SKY/WX    TMP DP  RH WIND       PRES   REMARKS
GREELEY ARPT   FAIR      35  32  88 CALM      29.95F
AKRON          FAIR      34  32  92 W8        29.92F WCI  27
BURLINGTON     FAIR      35  33  92 NW14      29.89S WCI  26
WRAY           NOT AVBL
STERLING       NOT AVBL
HOLYOKE        FAIR      34  32  93 NW7       29.90F WCI  28
FORT MORGAN    FAIR      34  32  92 W6        29.94F WCI  29
$$

COZ086-089-092>099-300800-
...SOUTHEAST COLORADO...

CITY           SKY/WX    TMP DP  RH WIND       PRES   REMARKS
PUEBLO         FAIR      39  34  82 CALM      29.95F
LA JUNTA       FAIR      38  34  85 W12       29.93F
LAMAR          FAIR      34  32  92 W7        29.90F WCI  28
SPRINGFIELD      N/A     33  32  96 NW10      29.90F WCI  25
$$




USA.gov is the U.S. government's official web portal to all federal, state and local government web resources and services.